Hourly Weather Rukavchicy

Today, 10 April, Saturday

Time Temperature Precipitation Wind Pressure Humidity
00:00 +2°C° 0 mm 5 mps 748 mmHg 65%
01:00 +2°C° 0 mm 5 mps 748 mmHg 66%
02:00 +2°C° 0 mm 5 mps 748 mmHg 68%
03:00 +2°C° 0 mm 5 mps 748 mmHg 70%
04:00 +1°C° 0 mm 5 mps 748 mmHg 72%
05:00 +1°C° 0 mm 5 mps 748 mmHg 75%
06:00 +1°C° 0 mm 5 mps 748 mmHg 72%
07:00 +2°C° 0 mm 6 mps 748 mmHg 70%
08:00 +3°C° 0 mm 6 mps 748 mmHg 68%
09:00 +4°C° 0 mm 6 mps 748 mmHg 62%
10:00 +7°C° 0 mm 6 mps 748 mmHg 57%
11:00 +9°C° 0 mm 7 mps 748 mmHg 52%
12:00 +10°C° 0 mm 7 mps 748 mmHg 50%
13:00 +11°C° 0 mm 7 mps 748 mmHg 48%
14:00 +12°C° 0 mm 7 mps 748 mmHg 46%
15:00 +13°C° 0 mm 6 mps 748 mmHg 50%
16:00 +12°C° 0 mm 5 mps 748 mmHg 53%
17:00 +12°C° 0 mm 4 mps 748 mmHg 57%
18:00 +11°C° 0 mm 4 mps 748 mmHg 60%
19:00 +10°C° 0 mm 3 mps 748 mmHg 64%
20:00 +10°C° 0 mm 3 mps 748 mmHg 68%
21:00 +9°C° 0 mm 2 mps 748 mmHg 71%
22:00 +9°C° 0 mm 2 mps 749 mmHg 74%
23:00 +8°C° 0 mm 2 mps 749 mmHg 76%

Tomorrow, 11 April, Sunday

Time Temperature Precipitation Wind Pressure Humidity
00:00 +8°C° 0 mm 2 mps 749 mmHg 77%
01:00 +7°C° 0 mm 3 mps 749 mmHg 78%
02:00 +7°C° 0 mm 3 mps 750 mmHg 79%
03:00 +7°C° 0 mm 3 mps 750 mmHg 79%
04:00 +7°C° 0 mm 3 mps 750 mmHg 79%
05:00 +7°C° 0 mm 3 mps 750 mmHg 79%
06:00 +7°C° 0 mm 3 mps 751 mmHg 77%
07:00 +7°C° 0 mm 4 mps 751 mmHg 76%
08:00 +7°C° 0 mm 4 mps 751 mmHg 74%
09:00 +10°C° 0 mm 4 mps 752 mmHg 68%
10:00 +11°C° 0 mm 4 mps 752 mmHg 63%
11:00 +13°C° 0 mm 5 mps 752 mmHg 58%
12:00 +14°C° 0 mm 5 mps 752 mmHg 54%
13:00 +15°C° 0 mm 5 mps 752 mmHg 51%
14:00 +15°C° 0 mm 6 mps 752 mmHg 48%
15:00 +15°C° 0 mm 5 mps 752 mmHg 49%
16:00 +15°C° 0 mm 5 mps 752 mmHg 50%
17:00 +15°C° 0 mm 5 mps 752 mmHg 51%
18:00 +13°C° 0 mm 4 mps 752 mmHg 56%
19:00 +11°C° 0 mm 4 mps 752 mmHg 61%
20:00 +10°C° 0 mm 3 mps 753 mmHg 66%
21:00 +8°C° 0 mm 4 mps 753 mmHg 65%
22:00 +8°C° 0 mm 4 mps 753 mmHg 65%
23:00 +7°C° 0 mm 4 mps 753 mmHg 64%

Day after tomorrow, 12 April, Monday

Time Temperature Precipitation Wind Pressure Humidity
00:00 +7°C° 0 mm 4 mps 753 mmHg 66%
01:00 +6°C° 0 mm 4 mps 753 mmHg 67%
02:00 +5°C° 0 mm 4 mps 753 mmHg 69%
03:00 +5°C° 0 mm 4 mps 753 mmHg 69%
04:00 +5°C° 0 mm 4 mps 752 mmHg 70%
05:00 +4°C° 0 mm 4 mps 752 mmHg 70%
06:00 +5°C° 0 mm 4 mps 752 mmHg 68%
07:00 +6°C° 0 mm 5 mps 752 mmHg 65%
08:00 +7°C° 0 mm 5 mps 752 mmHg 62%
09:00 +8°C° 0 mm 5 mps 752 mmHg 56%
10:00 +10°C° 0 mm 6 mps 752 mmHg 51%
11:00 +11°C° 0 mm 6 mps 751 mmHg 45%
12:00 +13°C° 0 mm 6 mps 751 mmHg 42%
13:00 +14°C° 0 mm 6 mps 750 mmHg 40%
14:00 +14°C° 0 mm 6 mps 750 mmHg 38%
15:00 +14°C° 0 mm 5 mps 750 mmHg 41%
16:00 +14°C° 0 mm 4 mps 749 mmHg 44%
17:00 +13°C° 0 mm 3 mps 749 mmHg 47%
18:00 +12°C° 0 mm 3 mps 749 mmHg 51%
19:00 +11°C° 0 mm 3 mps 749 mmHg 56%
20:00 +9°C° 0 mm 2 mps 749 mmHg 60%
21:00 +9°C° 0 mm 2 mps 749 mmHg 60%
22:00 +9°C° 0 mm 2 mps 749 mmHg 61%
23:00 +9°C° 0 mm 2 mps 749 mmHg 61%

13 April, Tuesday

Time Temperature Precipitation Wind Pressure Humidity
00:00 +9°C° 0 mm 2 mps 749 mmHg 62%
01:00 +9°C° 0 mm 2 mps 748 mmHg 62%
02:00 +9°C° 0 mm 2 mps 748 mmHg 63%
03:00 +9°C° 0 mm 2 mps 748 mmHg 65%
04:00 +9°C° 0 mm 2 mps 748 mmHg 68%
05:00 +9°C° 0 mm 2 mps 748 mmHg 70%
06:00 +10°C° 0 mm 1 mps 748 mmHg 70%
07:00 +10°C° 0 mm 1 mps 748 mmHg 70%
08:00 +11°C° 0 mm 1 mps 748 mmHg 70%
09:00 +12°C° 0 mm 1 mps 748 mmHg 68%
10:00 +13°C° 0 mm 1 mps 748 mmHg 66%
11:00 +14°C° 0 mm 1 mps 748 mmHg 65%
12:00 +14°C° 0.1 mm 2 mps 748 mmHg 66%
13:00 +14°C° 0.1 mm 2 mps 748 mmHg 67%
14:00 +13°C° 0.1 mm 3 mps 748 mmHg 68%
15:00 +13°C° 0 mm 4 mps 748 mmHg 71%
16:00 +12°C° 0 mm 4 mps 748 mmHg 75%
17:00 +10°C° 0 mm 5 mps 748 mmHg 78%
18:00 +8°C° 0.2 mm 5 mps 748 mmHg 82%
19:00 +7°C° 0.2 mm 5 mps 748 mmHg 86%
20:00 +6°C° 0.2 mm 5 mps 748 mmHg 89%
21:00 +5°C° 0.4 mm 5 mps 748 mmHg 90%
22:00 +5°C° 0.4 mm 5 mps 748 mmHg 92%
23:00 +5°C° 0.4 mm 5 mps 748 mmHg 93%

14 April, Wednesday

Time Temperature Precipitation Wind Pressure Humidity
00:00 +5°C° 0.3 mm 5 mps 748 mmHg 93%
01:00 +3°C° 0.3 mm 5 mps 748 mmHg 93%
02:00 +3°C° 0.3 mm 5 mps 748 mmHg 93%
03:00 +3°C° 0.1 mm 5 mps 748 mmHg 93%
04:00 +3°C° 0.1 mm 5 mps 747 mmHg 93%
05:00 +3°C° 0.1 mm 5 mps 747 mmHg 93%
06:00 +3°C° 0 mm 5 mps 747 mmHg 91%
07:00 +3°C° 0 mm 5 mps 747 mmHg 90%
08:00 +3°C° 0 mm 5 mps 747 mmHg 88%
09:00 +6°C° 0 mm 5 mps 747 mmHg 86%
10:00 +7°C° 0 mm 5 mps 747 mmHg 83%
11:00 +8°C° 0 mm 5 mps 747 mmHg 80%
12:00 +8°C° 0.1 mm 6 mps 747 mmHg 81%
13:00 +9°C° 0.1 mm 6 mps 747 mmHg 81%
14:00 +9°C° 0.1 mm 6 mps 746 mmHg 82%
15:00 +8°C° 0.5 mm 6 mps 746 mmHg 85%
16:00 +7°C° 0.5 mm 6 mps 746 mmHg 88%
17:00 +5°C° 0.5 mm 6 mps 746 mmHg 91%
18:00 +5°C° 0.4 mm 6 mps 746 mmHg 91%
19:00 +5°C° 0.4 mm 6 mps 746 mmHg 92%
20:00 +5°C° 0.4 mm 6 mps 746 mmHg 93%
21:00 +5°C° 0.4 mm 6 mps 747 mmHg 93%
22:00 +5°C° 0.4 mm 6 mps 747 mmHg 92%
23:00 +5°C° 0.4 mm 6 mps 747 mmHg 92%

15 April, Thursday

Time Temperature Precipitation Wind Pressure Humidity
00:00 +4°C° 0 mm 6 mps 747 mmHg 92%
01:00 +5°C° 0 mm 5 mps 747 mmHg 93%
02:00 +5°C° 0 mm 5 mps 747 mmHg 93%
03:00 +5°C° 0 mm 5 mps 747 mmHg 93%
04:00 +5°C° 0 mm 5 mps 747 mmHg 93%
05:00 +5°C° 0 mm 5 mps 747 mmHg 94%
06:00 +5°C° 0 mm 5 mps 748 mmHg 92%
07:00 +6°C° 0 mm 5 mps 748 mmHg 90%
08:00 +6°C° 0 mm 5 mps 748 mmHg 88%
09:00 +7°C° 0 mm 6 mps 749 mmHg 85%
10:00 +8°C° 0 mm 6 mps 749 mmHg 81%
11:00 +9°C° 0 mm 6 mps 749 mmHg 77%
12:00 +10°C° 0 mm 6 mps 749 mmHg 75%
13:00 +10°C° 0 mm 6 mps 749 mmHg 73%
14:00 +10°C° 0 mm 6 mps 749 mmHg 71%
15:00 +10°C° 0 mm 7 mps 749 mmHg 73%
16:00 +9°C° 0 mm 7 mps 750 mmHg 75%
17:00 +8°C° 0 mm 7 mps 750 mmHg 77%
18:00 +6°C° 0 mm 7 mps 750 mmHg 74%
19:00 +5°C° 0 mm 6 mps 750 mmHg 71%
20:00 +5°C° 0 mm 6 mps 751 mmHg 68%
21:00 +4°C° 0 mm 6 mps 751 mmHg 65%
22:00 +4°C° 0 mm 6 mps 751 mmHg 61%
23:00 +3°C° 0 mm 6 mps 751 mmHg 57%
Show more